Regional Weather Roundup
Issued by NWS

Home | Current Version | Previous Version | Text Only | Print | Product List | Glossary On
Versions: 1 2 3 4 5 6 7 8 9 10 11 12 13 14 15 16 17 18 19 20 21 22 23 24 25 26 27 28 29 30 31 32 33 34 35 36 37 38 39 40 41 42 43 44 45 46 47 48 49 50
000
ASUS44 KLIX 010701
RWRLA
LOUISIANA WEATHER ROUNDUP
NATIONAL WEATHER SERVICE NEW ORLEANS LA
100 AM CST SUN MAR 01 2015

NOTE: "FAIR" INDICATES FEW OR NO CLOUDS BELOW 12,000 FEET WITH NO
      SIGNIFICANT WEATHER AND/OR OBSTRUCTIONS TO VISIBILITY.
      SKY/WX - SKY CONDITION AND SIGNIFICANT WEATHER.
      TMP - AIR TEMPERATURE.    DP   - DEWPOINT TEMPERATURE.
      RH  - RELATIVE HUMIDITY.  PRES - PRESSURE.
      HX  - HEAT INDEX.         WCI  - WIND CHILL INDEX.

*  THESE STATIONS ARE NOT NWS OR FAA STATIONS AND ARE NOT UNDER
   NWS QUALITY CONTROL.

LAZ040-048-061>063-065-066-069-010800-
SOUTHEAST LOUISIANA

CITY           SKY/WX    TMP DP  RH WIND       PRES   REMARKS
N.O. AUDUBON   NOT AVBL
N.O. INTL ARPT CLOUDY    57  53  86 E9        30.31F
N.O. LAKEFRONT CLOUDY    58  53  84 E17G25    30.32F
SLIDELL        CLOUDY    57  53  86 SE10G20   30.32F
BATON ROUGE    MOCLDY    54  50  86 E10       30.30S
BOOTHVILLE     CLOUDY    59  58  96 E8        30.32S FOG
BELLE CHASSE   CLOUDY    58  54  86 E14       30.32S
BOGALUSA*        N/A     57  51  81 SE5       30.34S
GALLIANO*      CLOUDY    56  55  96 NE5       30.31S FOG
NEW ROADS*     CLOUDY    55  49  80 SE10      30.30S
GONZALES*      NOT AVBL
HAMMOND*       NOT AVBL
HOUMA*         CLOUDY    58  56  94 E12       30.30S
PORT FOURCHON* CLOUDY    59  57  94 E13       30.32F

$$

LAZ041-044-053-054-010800-
SOUTHWEST LOUISIANA

CITY           SKY/WX    TMP DP  RH WIND       PRES   REMARKS
LAKE CHARLES   CLOUDY    58  53  84 E13       30.24S
LAFAYETTE      CLOUDY    56  51  84 VRB7      30.27F
PATTERSON      CLOUDY    57  54  88 E10G16    30.30S
SALT POINT       N/A     57  55  93 VRB7      30.26F
NEW IBERIA     CLOUDY    57  52  83 E12       30.28F
CHENAULT AIRPK CLOUDY    55  48  79 E5        30.24F

$$

LAZ027-028-010800-
CENTRAL LOUISIANA

CITY           SKY/WX    TMP DP  RH WIND       PRES   REMARKS
FORT POLK      NOT AVBL
ALEXANDRIA INT CLOUDY    51  40  65 E3        30.26F
ALEXANDRIA     CLOUDY    50  40  68 CALM      30.28F

$$

LAZ001-002-010800-
NORTHWEST LOUISIANA

CITY           SKY/WX    TMP DP  RH WIND       PRES   REMARKS
SHREVEPORT     CLOUDY    46  35  65 N3        30.29R
BARKSDALE AFB  NOT AVBL
DTN SHREVEPORT CLOUDY    45  34  65 NW3       30.29S

$$

LAZ014-016-010800-
NORTHEAST LOUISIANA

CITY           SKY/WX    TMP DP  RH WIND       PRES   REMARKS
MONROE         PTCLDY    43  39  86 NE5       30.31F
TALLULAH       MOCLDY    42  38  85 NW3       30.31S

$$



USA.gov is the U.S. government's official web portal to all federal, state and local government web resources and services.